When you browse on this site, cookies collect data to enhance your experience and personalize the content and advertising you see.
Visit our Privacy Policy to learn more. By continuing to use the site, you agree to this use of cookies and data.
  • In Hungary
  • List of Countries
  • For 7 days
  • Water Temperature
  • Satellite Maps
  • Weather Map
  • News
  • Weather Widgets
  • user-avatar
    Login

    Hourly Weather Jacarezinho

    Today, 19 November, Monday

    Time Temperature Precipitation Wind Pressure Humidity
    00:00 +24°C° 0.1 mm 1 mps 718 mmHg 96%
    01:00 +23°C° 0.3 mm 2 mps 718 mmHg 95%
    02:00 +23°C° 0.3 mm 2 mps 718 mmHg 95%
    03:00 +22°C° 0.3 mm 3 mps 718 mmHg 94%
    04:00 +22°C° 0.3 mm 3 mps 718 mmHg 93%
    05:00 +21°C° 0.3 mm 3 mps 718 mmHg 92%
    06:00 +21°C° 0.3 mm 4 mps 718 mmHg 91%
    07:00 +21°C° 0.3 mm 4 mps 719 mmHg 90%
    08:00 +21°C° 0.3 mm 4 mps 719 mmHg 90%
    09:00 +21°C° 0.3 mm 4 mps 720 mmHg 90%
    10:00 +21°C° 0.3 mm 4 mps 720 mmHg 88%
    11:00 +21°C° 0.3 mm 4 mps 720 mmHg 87%
    12:00 +21°C° 0.3 mm 5 mps 720 mmHg 85%
    13:00 +22°C° 0.1 mm 5 mps 720 mmHg 83%
    14:00 +22°C° 0.1 mm 5 mps 719 mmHg 80%
    15:00 +22°C° 0.1 mm 6 mps 719 mmHg 77%
    16:00 +22°C° 0 mm 5 mps 719 mmHg 78%
    17:00 +21°C° 0 mm 5 mps 719 mmHg 78%
    18:00 +21°C° 0 mm 5 mps 719 mmHg 79%
    19:00 +20°C° 0 mm 5 mps 720 mmHg 79%
    20:00 +20°C° 0 mm 5 mps 720 mmHg 79%
    21:00 +19°C° 0 mm 5 mps 721 mmHg 80%
    22:00 +17°C° 0 mm 5 mps 721 mmHg 80%
    23:00 +17°C° 0 mm 5 mps 721 mmHg 81%

    Tomorrow, 20 November, Tuesday

    Time Temperature Precipitation Wind Pressure Humidity
    00:00 +17°C° 0 mm 4 mps 722 mmHg 82%
    01:00 +17°C° 0 mm 4 mps 721 mmHg 83%
    02:00 +17°C° 0 mm 4 mps 721 mmHg 85%
    03:00 +15°C° 0 mm 4 mps 720 mmHg 86%
    04:00 +15°C° 0 mm 4 mps 720 mmHg 86%
    05:00 +15°C° 0 mm 4 mps 721 mmHg 86%
    06:00 +15°C° 0 mm 4 mps 721 mmHg 87%
    07:00 +18°C° 0 mm 4 mps 721 mmHg 80%
    08:00 +19°C° 0 mm 5 mps 722 mmHg 73%
    09:00 +21°C° 0 mm 5 mps 722 mmHg 66%
    10:00 +23°C° 0 mm 5 mps 722 mmHg 61%
    11:00 +26°C° 0 mm 5 mps 722 mmHg 56%
    12:00 +28°C° 0 mm 5 mps 722 mmHg 51%
    13:00 +28°C° 0 mm 5 mps 721 mmHg 50%
    14:00 +29°C° 0 mm 5 mps 721 mmHg 48%
    15:00 +30°C° 0 mm 4 mps 720 mmHg 47%
    16:00 +28°C° 0 mm 4 mps 720 mmHg 52%
    17:00 +27°C° 0 mm 4 mps 719 mmHg 57%
    18:00 +26°C° 0 mm 4 mps 719 mmHg 62%
    19:00 +23°C° 0 mm 4 mps 720 mmHg 65%
    20:00 +22°C° 0 mm 5 mps 721 mmHg 67%
    21:00 +20°C° 0 mm 5 mps 721 mmHg 69%
    22:00 +19°C° 0 mm 5 mps 722 mmHg 72%
    23:00 +17°C° 0 mm 5 mps 722 mmHg 74%

    Day after tomorrow, 21 November, Wednesday

    Time Temperature Precipitation Wind Pressure Humidity
    00:00 +16°C° 0 mm 5 mps 722 mmHg 77%
    01:00 +16°C° 0 mm 5 mps 722 mmHg 79%
    02:00 +17°C° 0 mm 4 mps 721 mmHg 80%
    03:00 +15°C° 0 mm 4 mps 721 mmHg 82%
    04:00 +15°C° 0 mm 4 mps 721 mmHg 83%
    05:00 +15°C° 0 mm 4 mps 721 mmHg 85%
    06:00 +15°C° 0 mm 4 mps 721 mmHg 86%
    07:00 +18°C° 0 mm 4 mps 721 mmHg 82%
    08:00 +20°C° 0 mm 4 mps 722 mmHg 78%
    09:00 +22°C° 0 mm 5 mps 722 mmHg 74%
    10:00 +23°C° 0 mm 4 mps 722 mmHg 71%
    11:00 +26°C° 0 mm 4 mps 722 mmHg 69%
    12:00 +27°C° 0 mm 4 mps 722 mmHg 66%
    13:00 +27°C° 0 mm 4 mps 721 mmHg 68%
    14:00 +27°C° 0 mm 4 mps 721 mmHg 69%
    15:00 +26°C° 0 mm 4 mps 720 mmHg 71%
    16:00 +26°C° 0 mm 4 mps 720 mmHg 73%
    17:00 +25°C° 0 mm 4 mps 720 mmHg 75%
    18:00 +25°C° 0 mm 4 mps 720 mmHg 76%
    19:00 +23°C° 0 mm 4 mps 720 mmHg 79%
    20:00 +22°C° 0 mm 4 mps 721 mmHg 83%
    21:00 +21°C° 0 mm 3 mps 721 mmHg 86%
    22:00 +21°C° 0 mm 3 mps 721 mmHg 86%
    23:00 +21°C° 0 mm 3 mps 721 mmHg 86%

    22 November, Thursday

    Time Temperature Precipitation Wind Pressure Humidity
    00:00 +21°C° 0 mm 3 mps 721 mmHg 87%
    01:00 +21°C° 0 mm 3 mps 721 mmHg 88%
    02:00 +21°C° 0 mm 3 mps 720 mmHg 88%
    03:00 +20°C° 0 mm 3 mps 720 mmHg 89%
    04:00 +20°C° 0 mm 3 mps 720 mmHg 90%
    05:00 +20°C° 0 mm 3 mps 720 mmHg 90%
    06:00 +20°C° 0 mm 3 mps 720 mmHg 90%
    07:00 +22°C° 0 mm 3 mps 721 mmHg 84%
    08:00 +24°C° 0 mm 3 mps 721 mmHg 77%
    09:00 +26°C° 0 mm 3 mps 722 mmHg 71%
    10:00 +26°C° 0 mm 3 mps 721 mmHg 69%
    11:00 +27°C° 0 mm 3 mps 721 mmHg 68%
    12:00 +27°C° 0 mm 3 mps 721 mmHg 66%
    13:00 +29°C° 0.1 mm 3 mps 720 mmHg 62%
    14:00 +30°C° 0.1 mm 3 mps 719 mmHg 59%
    15:00 +31°C° 0.1 mm 2 mps 719 mmHg 55%
    16:00 +30°C° 0 mm 2 mps 718 mmHg 58%
    17:00 +30°C° 0 mm 2 mps 718 mmHg 62%
    18:00 +29°C° 0 mm 1 mps 718 mmHg 66%
    19:00 +27°C° 0 mm 2 mps 718 mmHg 71%
    20:00 +26°C° 0 mm 2 mps 719 mmHg 75%
    21:00 +24°C° 0 mm 2 mps 719 mmHg 79%
    22:00 +24°C° 0 mm 2 mps 719 mmHg 82%
    23:00 +24°C° 0 mm 2 mps 719 mmHg 84%

    23 November, Friday

    Time Temperature Precipitation Wind Pressure Humidity
    00:00 +23°C° 0 mm 2 mps 719 mmHg 86%
    01:00 +23°C° 0 mm 2 mps 719 mmHg 88%
    02:00 +21°C° 0 mm 2 mps 718 mmHg 90%
    03:00 +21°C° 0 mm 2 mps 718 mmHg 91%
    04:00 +21°C° 0 mm 2 mps 718 mmHg 91%
    05:00 +21°C° 0 mm 2 mps 719 mmHg 92%
    06:00 +22°C° 0 mm 1 mps 719 mmHg 92%
    07:00 +24°C° 0 mm 2 mps 719 mmHg 83%
    08:00 +26°C° 0 mm 2 mps 720 mmHg 74%
    09:00 +28°C° 0 mm 3 mps 720 mmHg 65%
    10:00 +29°C° 0.2 mm 3 mps 720 mmHg 61%
    11:00 +30°C° 0.2 mm 3 mps 720 mmHg 57%
    12:00 +33°C° 0.2 mm 3 mps 719 mmHg 54%
    13:00 +32°C° 0.1 mm 2 mps 719 mmHg 53%
    14:00 +32°C° 0.1 mm 2 mps 718 mmHg 52%
    15:00 +32°C° 0.1 mm 2 mps 717 mmHg 52%
    16:00 +31°C° 0.2 mm 2 mps 717 mmHg 57%
    17:00 +30°C° 0.2 mm 1 mps 717 mmHg 62%
    18:00 +29°C° 0.2 mm 1 mps 717 mmHg 66%
    19:00 +28°C° 0.1 mm 1 mps 717 mmHg 70%
    20:00 +27°C° 0.1 mm 1 mps 717 mmHg 74%
    21:00 +26°C° 0.1 mm 1 mps 718 mmHg 78%
    22:00 +25°C° 0.7 mm 1 mps 718 mmHg 81%
    23:00 +25°C° 0.7 mm 1 mps 718 mmHg 83%

    24 November, Saturday

    Time Temperature Precipitation Wind Pressure Humidity
    00:00 +24°C° 0.7 mm 1 mps 717 mmHg 86%
    01:00 +24°C° 1.9 mm 1 mps 717 mmHg 88%
    02:00 +24°C° 1.9 mm 2 mps 717 mmHg 89%
    03:00 +23°C° 1.9 mm 2 mps 717 mmHg 91%
    04:00 +23°C° 2.5 mm 2 mps 717 mmHg 91%
    05:00 +23°C° 2.5 mm 2 mps 718 mmHg 90%
    06:00 +23°C° 2.5 mm 2 mps 718 mmHg 90%
    07:00 +23°C° 1.8 mm 2 mps 718 mmHg 90%
    08:00 +24°C° 1.8 mm 2 mps 719 mmHg 90%
    09:00 +24°C° 1.8 mm 2 mps 719 mmHg 89%
    10:00 +24°C° 2.1 mm 2 mps 719 mmHg 90%
    11:00 +24°C° 2.1 mm 2 mps 718 mmHg 90%
    12:00 +24°C° 2.1 mm 2 mps 718 mmHg 90%
    13:00 +24°C° 2.4 mm 2 mps 718 mmHg 91%
    14:00 +24°C° 2.4 mm 2 mps 717 mmHg 92%
    15:00 +23°C° 2.4 mm 2 mps 717 mmHg 93%
    16:00 +23°C° 3.3 mm 2 mps 716 mmHg 94%
    17:00 +22°C° 3.3 mm 3 mps 716 mmHg 95%
    18:00 +21°C° 3.3 mm 3 mps 716 mmHg 96%
    19:00 +21°C° 6.5 mm 3 mps 716 mmHg 96%
    20:00 +21°C° 6.5 mm 4 mps 716 mmHg 96%
    21:00 +21°C° 6.5 mm 4 mps 717 mmHg 96%
    22:00 +21°C° 9.3 mm 4 mps 716 mmHg 96%
    23:00 +21°C° 9.3 mm 4 mps 716 mmHg 96%
    Show more